Alice, TX

1:48 PM CST on November 20, 2017 (GMT -0600)
Alice International

Weather History for KALI - March, 2013

Change the Weather History Date:

Wednesday, March 13, 2013

  Actual Average Record
Temperature  
Mean Temperature 62 °F -  
Max Temperature 79 °F 74 °F 93 °F (2005)
Min Temperature 46 °F 54 °F 45 °F (2014)
Degree Days  
Heating Degree Days 3    
Growing Degree Days 12 (Base 50)    
Moisture  
Dew Point 46 °F    
Average Humidity 60    
Maximum Humidity 80    
Minimum Humidity 25    
Precipitation  
Precipitation 0.00 in - - ()
Sea Level Pressure  
Sea Level Pressure 30.32 in    
Wind  
Wind Speed 6 mph (East)    
Max Wind Speed 17 mph    
Max Gust Speed 22 mph    
Visibility 10 miles    
Events      
Averages and records for this station are not official NWS values.
T = Trace of Precipitation, MM = Missing Value Source: NWS Daily Summary

Daily Weather History Graph

Daily Weather History Graph

Search for Another Location

Airport or City:

Trip Planner

Search our weather history database for the weather conditions in past years. The results will help you decide how hot, cold, wet, or windy it might be!

Date:

Astronomy

Mar. 13, 2013 Rise Set
Actual Time 7:43 AM CDT 7:39 PM CDT
Civil Twilight 7:20 AM CDT 8:03 PM CDT
Nautical Twilight 6:53 AM CDT 8:30 PM CDT
Astronomical Twilight 6:25 AM CDT 8:57 PM CDT
Moon 8:37 AM CDT (3/13) 9:41 PM CDT (3/13)
Length of Visible Light 12h 43m
Length of Day
11h 56m
Waxing Crescent, 4% of the Moon is Illuminated
Mar 13
Waxing Crescent
Mar 19
First Quarter
Mar 27
Full
Apr 2
Last Quarter
Apr 10
New

Hourly Weather History & Observations

Time (CDT) Temp. Windchill Dew Point Humidity Pressure Visibility Wind Dir Wind Speed Gust Speed Precip Events Conditions
12:53 AM 53.1 °F - 45.0 °F 74% 30.23 in 10.0 mi Calm Calm - N/A   Clear
1:53 AM 52.0 °F - 43.0 °F 71% 30.23 in 10.0 mi Calm Calm - N/A   Clear
2:53 AM 53.1 °F - 45.0 °F 74% 30.23 in 10.0 mi WSW 4.6 mph - N/A   Clear
3:53 AM 52.0 °F - 44.1 °F 74% 30.23 in 10.0 mi West 3.5 mph - N/A   Clear
4:53 AM 50.0 °F - 42.1 °F 74% 30.24 in 10.0 mi West 3.5 mph - N/A   Clear
5:53 AM 46.0 °F - 39.9 °F 79% 30.26 in 10.0 mi Calm Calm - N/A   Clear
6:53 AM 46.0 °F 42.5 °F 39.0 °F 76% 30.31 in 10.0 mi NNE 6.9 mph - N/A   Clear
7:53 AM 46.9 °F - 41.0 °F 80% 30.34 in 10.0 mi NNE 5.8 mph - N/A   Clear
8:53 AM 54.0 °F - 46.9 °F 77% 30.36 in 10.0 mi NNE 11.5 mph - N/A   Clear
9:53 AM 60.1 °F - 50.0 °F 69% 30.39 in 10.0 mi ENE 10.4 mph - N/A   Clear
10:53 AM 66.9 °F - 53.1 °F 61% 30.40 in 10.0 mi East 8.1 mph - N/A   Clear
11:53 AM 71.1 °F - 51.1 °F 49% 30.40 in 10.0 mi East 8.1 mph - N/A   Clear
12:53 PM 73.9 °F - 48.9 °F 41% 30.39 in 10.0 mi ENE 10.4 mph 16.1 mph N/A   Clear
1:53 PM 75.9 °F - 46.0 °F 35% 30.35 in 10.0 mi ESE 12.7 mph 19.6 mph N/A   Clear
2:53 PM 78.1 °F - 39.9 °F 25% 30.32 in 10.0 mi East 6.9 mph 19.6 mph N/A   Clear
3:53 PM 77.0 °F - 39.9 °F 26% 30.31 in 10.0 mi ESE 8.1 mph 17.3 mph N/A   Clear
4:53 PM 77.0 °F - 44.1 °F 31% 30.30 in 10.0 mi ESE 13.8 mph 21.9 mph N/A   Clear
5:53 PM 75.0 °F - 42.1 °F 31% 30.30 in 10.0 mi East 12.7 mph - N/A   Clear
6:53 PM 71.1 °F - 42.1 °F 35% 30.30 in 10.0 mi ESE 16.1 mph 21.9 mph N/A   Clear
7:53 PM 66.0 °F - 51.1 °F 59% 30.31 in 10.0 mi ESE 17.3 mph - N/A   Clear
8:53 PM 63.0 °F - 52.0 °F 67% 30.33 in 10.0 mi ESE 12.7 mph - N/A   Clear
9:53 PM 60.1 °F - 51.1 °F 72% 30.35 in 10.0 mi ESE 6.9 mph - N/A   Clear
10:53 PM 57.0 °F - 48.9 °F 74% 30.36 in 10.0 mi East 4.6 mph - N/A   Clear
11:53 PM 55.0 °F - 46.9 °F 74% 30.36 in 10.0 mi ESE 4.6 mph - N/A   Clear